CZ-3C DEB, 39345

Orbit data source: Space-Track

CZ-3C DEB, 39345 is space debris in HEO originally from a launch on Sun, 31 Oct 2010 UTC launched from the Xichang Space Center, China (XSC). Debris objects in space refer to the collection of defunct objects orbiting the Earth. Examples of debris include non-operational satellites, rocket bodies, and fragments generated from explosions, collisions, or faulty payload assembly.

Loading next visibility...
Identifier
39345, 2010-057K
Orbit
HEO
Country
Flag of CNCN / PRC
Related business
Manufacturer
CALT
Mission
Spacecraft
Bus & Motor
Unknown
Mass
Unknown
Launch date (UTC)
2010-10-31 (15 years ago)
Launch vehicle
Unknown
Launch site
Xichang Space Center, China (XSC)
Object type
Payload
Rocket body
Debris
Shape & HBR
Unknown shape, 0.4 m
Radar Cross Section
Medium (>0.1 m² and <1 m²)

Expand to show TLE details & history
Last TLE update: 2 days ago

TLE from 2 days ago
0 CZ-3C DEB
1 39345U 10057K   25292.44734012  .00038788  00000-0  20310-1 0  9993
2 39345  20.3143  73.8938 6804614 137.2043 302.8787  2.86993641112508
Epoch: 2025-10-19T10:44Z
TLE epoch observation values (Epoch: 2025-10-19T10:44:10.186Z)
Latitude
-0.0001°
Longitude
-115.29808°
Altitude
16,013.097 km
Speed
4.068 km/s
True Right ascension
04h 55m 37s
True Declination
0° 00' 00"
Sunlit
Object was in daylight at epoch
Visualization orbit readout
Latitude
Unknown
Longitude
Unknown
Altitude
Unknown
Speed
Unknown
Apparent Right ascension
Unknown
Apparent Declination
Unknown
Sunlit
N/A
Visualization observer readout
Local Sidereal Time
21:36:11
Azimuth
Unknown
Elevation
Unknown
Doppler factor
Unknown
Orbital elements
Apogee altitude
28,778.46 km
Perigee altitude
306.866 km
Semi-major axis
20,920.8 km
Eccentricity
0.68046
Inclination
20.3143°
RAAN
73.8938°
Arg. of periapsis
137.2043°
True anomaly
222.93999°
Mean anomaly
302.8787°
Eccentric anomaly
264.09781°
Mean motion
0.71726 °/min
Orbital period
501.91 mins
BSTAR
0.02031
Loading maneuver chart data...
Computing Atmospheric mass density...
Loading historical data...
Loading historical data...
Loading historical data...
Loading historical data...
Loading historical data...
Loading historical data...
Loading historical data...

Documentation

Showing up to 5 results
|